Location: Arbon
(43.0005°N, 0.7472°E)
Time: 10:22:16
(UTC+00:00)

Feng Yun 1-1 Rocket - Pass Details

Date: 22 April 2026
Orbit: 829 x 932 km, 99.0° (Epoch: 20 May)

Event Time Altitude Azimuth Distance (km) Brightness Sun altitude
Exits shadow 19:59:44 - 162° (SSE) 2,615 6.3 -12.8°
Reaches altitude 10° 20:00:05 10° 162° (SSE) 2,481 6.2 -12.9°
Maximum altitude 20:05:34 85° 76° (ENE) 852 4.2 -13.7°
Drops below altitude 10° 20:11:01 10° 347° (NNW) 2,452 7.3 -14.6°
Sets 20:13:21 0° 347° (NNW) 3,385 8.1 -14.9°
